#timestamp,LO_Frequency,Hit,StdDev 
1508454015.0,286046997.9,P
1508454015.9,286046997.9,N
1508454035.8,286046995.9,N
1508454055.6,286046995.4,N
1508454075.4,286046998.0,N
1508454095.2,286046994.6,N
1508454115.1,286046995.4,N
1508454116.0,286046995.4,N
1508454135.8,286046997.3,N
1508454155.6,286046996.4,N
1508454175.5,286046996.1,N
1508454195.3,286046995.2,N
1508454215.1,286046996.4,N
1508454235.9,286046993.7,N
1508454255.7,286046993.9,N
1508454275.5,286046993.3,Y
1508454295.4,286046996.6,P
1508454315.2,286046999.0,N
1508454335.0,286047001.1,N
1508454335.9,286047001.1,N
1508454355.8,286046999.1,N
1508454375.6,286046996.8,N
1508454395.4,286046996.6,N
1508454415.3,286046998.4,N
1508454435.1,286046999.2,N
1508454436.0,286046999.2,N
1508454455.8,286046998.6,N
1508454475.7,286047001.2,N
1508454495.5,286046998.6,N
1508454515.3,286046998.3,N
1508454535.1,286046996.7,N
1508454555.9,286046994.3,Y
1508454575.7,286047001.0,P
1508454595.6,286047005.2,P
1508454615.4,286047012.4,P
1508454635.2,286047013.2,N
1508454655.0,286047016.8,N
1508454656.0,286047016.8,N
1508454675.8,286047018.0,N
1508454695.6,286047018.0,N
1508454715.4,286047017.5,N
1508454735.3,286047022.6,Y
1508454755.1,286047016.4,P
1508454775.8,286047015.1,P
1508454795.7,286047016.6,P
1508454815.5,286047017.1,Y
1508454835.4,286047002.4,P
1508454855.2,286047006.0,N
1508454875.0,286047005.8,N
1508454875.9,286047005.8,N
1508454895.7,286047004.3,N
1508454915.6,286047002.0,N
1508454935.4,286046999.8,N
1508454955.2,286046996.9,N
1508454975.1,286046995.8,N
1508454976.0,286046995.8,N
1508454995.8,286046997.3,N
1508455015.6,286046995.5,N
1508455035.5,286046995.4,N
1508455055.3,286046996.7,N
1508455075.1,286046997.0,N
1508455095.9,286046995.3,N
1508455115.7,286046995.3,N
1508455135.5,286046998.0,N
1508455155.4,286046996.2,N
1508455175.2,286046995.5,N
1508455195.0,286046999.3,N
1508455195.9,286046999.3,N
1508455215.8,286046997.5,N
1508455235.6,286046992.3,N
1508455255.4,286046992.5,N
1508455275.2,286046992.7,N
1508455295.1,286046994.3,N
1508455296.0,286046994.3,N
1508455315.8,286046996.9,N
1508455335.6,286046997.3,N
1508455355.5,286046998.0,N
1508455375.3,286046995.3,N
1508455395.1,286046996.6,N
1508455415.9,286046998.6,N
1508455435.7,286047002.6,N
1508455455.5,286047002.6,N
1508455475.4,286047002.1,N
1508455495.2,286047001.5,N
1508455515.0,286047005.6,N
1508455515.9,286047005.6,N
1508455535.8,286047005.3,N
1508455555.6,286047004.7,N
1508455575.4,286047003.4,N
1508455595.3,286047002.6,N
1508455615.1,286046999.1,N
1508455616.0,286046999.1,N
1508455635.8,286046992.1,N
1508455655.7,286046992.2,N
1508455675.5,286046989.1,N
1508455695.3,286046987.5,N
1508455715.2,286046985.8,N
1508455735.9,286046985.7,N
1508455755.7,286046983.8,N
1508455775.5,286046985.1,N
1508455795.4,286046982.9,N
1508455815.2,286046981.4,N
1508455835.0,286046979.1,N
1508455835.9,286046979.1,N
1508455855.8,286046981.1,N
1508455875.6,286046982.0,N
1508455895.4,286046981.8,N
1508455915.3,286046981.8,N
1508455935.1,286046981.3,N
1508455936.0,286046981.3,N
1508455955.8,286046981.9,N
1508455975.7,286046981.4,N
1508455995.5,286046981.8,N
1508456015.3,286046980.9,N
1508456035.2,286046981.1,N
1508456055.9,286046980.1,N
1508456075.7,286046979.7,N
1508456095.5,286046978.9,N
1508456115.4,286046981.1,N
1508456135.2,286046982.8,N
1508456155.0,286046982.1,Y
1508456156.0,286046982.1,P
1508456175.8,286046998.8,N
1508456195.6,286046998.2,N
1508456215.4,286046998.2,N
1508456235.3,286046998.7,N
1508456255.1,286046999.3,N
1508456275.8,286046997.7,N
1508456295.7,286046995.7,N
1508456315.5,286046995.1,N
1508456335.3,286046995.2,N
1508456355.2,286046993.5,N
1508456375.9,286046997.4,N
1508456395.7,286046998.6,N
1508456415.6,286046993.3,N
1508456435.4,286046996.8,N
1508456455.2,286046999.0,N
1508456475.1,286047002.6,N
1508456476.0,286047002.6,N
1508456495.8,286047003.3,N
1508456515.6,286047006.7,N
1508456535.4,286047013.5,N
1508456555.3,286047012.6,N
1508456575.1,286047014.0,N
1508456595.8,286047014.0,N
1508456615.7,286047016.4,N
1508456635.5,286047017.9,N
1508456655.3,286047017.2,N
1508456675.2,286047013.0,N
1508456695.9,286047013.7,N
1508456715.7,286047012.0,N
1508456735.6,286047011.8,N
1508456755.4,286047012.7,N
1508456775.2,286047016.8,N
1508456795.1,286047015.7,N
1508456796.0,286047015.7,N
1508456815.8,286047018.7,N
1508456835.6,286047016.3,N
1508456855.5,286047013.2,N
1508456875.3,286047013.2,N
1508456895.1,286047014.5,N
1508456915.8,286047014.6,N
1508456935.7,286047012.9,N
1508456955.5,286047015.1,N
1508456975.3,286047014.8,N
1508456995.2,286047012.9,N
1508457015.0,286047012.0,N
1508457015.9,286047012.0,N
1508457035.8,286047012.1,Y
1508457055.6,286046997.1,P
1508457075.4,286046996.0,N
1508457095.2,286046995.0,N
1508457115.1,286046997.9,N
1508457116.0,286046997.9,N
1508457135.8,286046997.5,N
1508457155.6,286046996.8,N
1508457175.5,286046996.8,N
1508457195.3,286046998.3,N
1508457215.1,286046999.2,N
1508457235.9,286046994.2,N
1508457255.7,286046992.5,N
1508457275.5,286046991.5,N
1508457295.4,286046990.9,N
1508457315.2,286046991.8,N
1508457335.0,286046995.5,N
1508457335.9,286046995.5,N
1508457355.8,286046993.3,N
1508457375.6,286046995.7,N
1508457395.4,286046997.6,N
1508457415.3,286046996.3,N
1508457435.1,286046994.7,N
1508457436.0,286046994.7,N
1508457455.8,286046992.2,N
1508457475.7,286046988.6,N
1508457495.5,286046990.0,N
1508457515.3,286046989.3,N
1508457535.1,286046990.0,N
1508457555.9,286046987.7,N
1508457575.7,286046989.6,N
1508457595.5,286046988.6,Y
